Location: Newark
(7.1028°S, 35.3258°W)
Time: 08:46:27
(UTC+00:00)

Vanguard 3 - Pass Details

Date: 24 February 2020
Orbit: 508 x 3263 km, 33.4° (Epoch: 08 April)

Event Time Altitude Azimuth Distance (km) Brightness Sun altitude
Rises 16:06:17 0° 343° (NNW) 5,011 11.2 67.2°
Reaches altitude 10° 16:11:02 10° 2° (N) 4,526 11.0 66.0°
Maximum altitude 16:19:09 18° 40° (NE) 4,613 11.0 64.0°
Drops below altitude 10° 16:29:21 10° 76° (ENE) 5,894 11.4 61.5°
Sets 16:37:01 0° 92° (E) 7,173 11.7 59.6°
